Home > Weather > Villeurbanne > Past weeks

Flag for France Past Weather in Villeurbanne, Rhône-Alpes, France — Yesterday and Last 2 Weeks

Now
59 °F

Light rain. Broken clouds.


Feels Like: 58 °F
Forecast: 57 / 67 °F
Wind: 7 mph from Southwest

Location: Lyon / Bron

Current Time: May 29, 2016 at 9:57:19 AM

Latest Report: May 29, 2016 at 9:00 AM


Visibility: 5 mi

Pressure: 29.74 "Hg

Humidity: 100%

Dew Point: 59 °F

Location of VilleurbanneLocation

Past Weather in Villeurbanne — Graph

°F

Villeurbanne Temperature Yesterday

Maximum temperature yesterday: 82 °F (at 4:30 PM)
Minimum temperature yesterday: 61 °F (at 6:30 AM)
Average temperature yesterday: 71 °F

High & Low Weather Summary for the Past Weeks

 TemperatureHumidityPressure
High86 °F (May 27, 6:00 PM)100% (May 20, 1:00 AM)30.21 "Hg (May 20, 1:00 AM)
Low39 °F (May 16, 5:30 AM)29% (May 27, 6:00 PM)29.71 "Hg (May 28, 7:30 PM)
Average59 °F69%30.00 "Hg
* Reported May 14 9:00 AM — May 29 9:00 AM, Villeurbanne, Weather by CustomWeather, © 2016

Note: Actual official high and low records may vary slightly from our data, if they occured in-between our weather recording intervals... More about our weather records

Advertising

Villeurbanne Weather History for the Previous 24 Hours

Scroll right to see more
 ConditionsComfort  
Time TempWeatherWind HumidityBarometerVisibility
9:00 AM
Sun, May 29
59 °FLight rain. Broken clouds.7 mph100%29.74 "Hg5 mi
8:30 AM59 °FLight rain. Low clouds.3 mph100%29.74 "Hg4 mi
8:00 AM59 °FRain. Fog.No wind100%29.74 "Hg3 mi
7:30 AM59 °FRain. Fog.2 mph100%29.74 "Hg2 mi
7:00 AM59 °FLight rain. Broken clouds.5 mph100%29.74 "HgN/A
6:30 AM59 °FRain. Mostly cloudy.2 mph94%29.74 "Hg4 mi
6:00 AM59 °FCool.No wind94%29.74 "HgN/A
5:30 AM59 °FCool.2 mph94%29.74 "HgN/A
5:00 AM59 °FClear.2 mph94%29.74 "Hg10 mi
4:30 AM59 °FClear.2 mph94%29.74 "Hg10 mi
4:00 AM59 °FClear.3 mph94%29.74 "Hg10 mi
3:30 AM61 °FClear.7 mph88%29.77 "Hg10 mi
3:00 AM61 °FPassing clouds.5 mph94%29.77 "HgN/A
2:30 AM61 °FCool.5 mph88%29.80 "HgN/A
2:00 AM61 °FLight rain. Overcast.6 mph88%29.77 "HgN/A
1:30 AM61 °FLight rain. Mostly cloudy.5 mph88%29.83 "HgN/A
1:00 AM63 °FLight rain. Passing clouds.12 mph88%29.83 "HgN/A
12:30 AM66 °FLight rain. Partly cloudy.9 mph73%29.83 "HgN/A
12:00 AM66 °FMostly cloudy.10 mph68%29.83 "HgN/A
11:30 PM
Sat, May 28
66 °FMostly cloudy.3 mph64%29.83 "HgN/A
11:00 PM66 °FPassing clouds.No wind64%29.80 "HgN/A
10:30 PM66 °FMostly cloudy.9 mph68%29.80 "HgN/A
10:00 PM72 °FMostly cloudy.12 mph61%29.77 "HgN/A
9:30 PM73 °FPassing clouds.13 mph50%29.74 "HgN/A
9:00 PM75 °FPassing clouds.18 mph54%29.74 "HgN/A
8:30 PM75 °FPassing clouds.5 mph54%29.71 "HgN/A
8:00 PM75 °FSunny.3 mph54%29.71 "Hg10 mi
7:30 PM75 °FPassing clouds.8 mph54%29.71 "HgN/A
7:00 PM77 °FPartly sunny.3 mph47%29.74 "HgN/A
6:30 PM77 °FMore clouds than sun.3 mph51%29.74 "HgN/A
6:00 PM77 °FThundershowers. Cloudy.5 mph47%29.77 "HgN/A
5:30 PM77 °FWarm.9 mph44%29.74 "HgN/A
5:00 PM81 °FSunny.9 mph42%29.77 "Hg10 mi
4:30 PM82 °FPassing clouds.10 mph42%29.77 "HgN/A
4:00 PM81 °FPassing clouds.9 mph45%29.80 "HgN/A
3:30 PM81 °FPassing clouds.9 mph42%29.80 "HgN/A
3:00 PM81 °FPassing clouds.6 mph42%29.83 "HgN/A
2:30 PM79 °FPassing clouds.8 mph42%29.83 "HgN/A
2:00 PM79 °FPassing clouds.8 mph45%29.83 "HgN/A
1:30 PM77 °FPassing clouds.6 mph44%29.86 "HgN/A
1:00 PM77 °FPassing clouds.8 mph44%29.86 "HgN/A
12:30 PM75 °FPassing clouds.7 mph50%29.86 "HgN/A
12:00 PM72 °FPassing clouds.6 mph53%29.89 "HgN/A
11:30 AM73 °FMild.6 mph53%29.89 "HgN/A
11:00 AM70 °FMild.2 mph69%29.92 "HgN/A
10:30 AM68 °FMild.6 mph69%29.92 "HgN/A
10:00 AM66 °FSunny.6 mph73%29.92 "Hg10 mi
9:30 AM66 °FSunny.7 mph68%29.92 "Hg10 mi
9:00 AM66 °FPassing clouds.5 mph68%29.92 "HgN/A
Weather by CustomWeather, © 2016

See weather overviewHow to use our weather pages